Stanton, MN

8:23 PM CDT on June 24, 2017 (GMT -0500)
Stanton

Weather History for KSYN - January, 2013

Change the Weather History Date:

Wednesday, January 9, 2013

  Actual Average (KLVN) Record (KLVN)
Temperature  
Mean Temperature 26 °F -  
Max Temperature 35 °F 18 °F 48 °F (2002)
Min Temperature 18 °F 0 °F -35 °F (1977)
Degree Days  
Heating Degree Days 38    
Moisture  
Dew Point 22 °F    
Average Humidity 72    
Maximum Humidity 87    
Minimum Humidity 59    
Precipitation  
Precipitation 0.00 in - - ()
Sea Level Pressure  
Sea Level Pressure 30.18 in    
Wind  
Wind Speed 11 mph (WSW)    
Max Wind Speed 24 mph    
Max Gust Speed 31 mph    
Visibility 10 miles    
Events      
Averages and records for this station are not official NWS values.
T = Trace of Precipitation, MM = Missing Value Source: NWS Daily Summary

Daily Weather History Graph

Daily Weather History Graph

Search for Another Location

Airport or City:

Trip Planner

Search our weather history database for the weather conditions in past years. The results will help you decide how hot, cold, wet, or windy it might be!

Date:

Astronomy

Jan. 09, 2013 Rise Set
Actual Time 7:47 AM CST 4:51 PM CST
Civil Twilight 7:14 AM CST 5:24 PM CST
Nautical Twilight 6:38 AM CST 6:00 PM CST
Astronomical Twilight 6:03 AM CST 6:35 PM CST
Moon 5:27 AM CST (1/9) 2:53 PM CST (1/9)
Length of Visible Light 10h 09m
Length of Day
9h 04m
Waning Crescent, 6% of the Moon is Illuminated
Jan 9
Waning Crescent
Jan 11
New
Jan 18
First Quarter
Jan 26
Full
Feb 3
Last Quarter

Hourly Weather History & Observations

Time (CST) Temp. Windchill Dew Point Humidity Pressure Visibility Wind Dir Wind Speed Gust Speed Precip Events Conditions
12:13 AM 32.0 °F 24.2 °F 26.2 °F 79% 29.92 in 10.0 mi WSW 9.2 mph - N/A   Clear
12:32 AM 31.8 °F 23.9 °F 26.6 °F 81% 29.92 in 10.0 mi SW 9.2 mph - N/A   Scattered Clouds
12:52 AM 32.5 °F 24.8 °F 26.6 °F 79% 29.92 in 10.0 mi WSW 9.2 mph - N/A   Scattered Clouds
1:13 AM 33.1 °F 24.9 °F 26.6 °F 77% 29.93 in 10.0 mi WSW 10.4 mph - N/A   Overcast
1:32 AM 33.1 °F 24.4 °F 26.6 °F 77% 29.94 in 10.0 mi West 11.5 mph 18.4 mph N/A   Mostly Cloudy
2:12 AM 34.0 °F 27.2 °F 27.0 °F 75% 29.95 in 10.0 mi WSW 8.1 mph - N/A   Scattered Clouds
2:32 AM 32.4 °F 24.6 °F 26.1 °F 78% 29.95 in 10.0 mi SW 9.2 mph - N/A   Scattered Clouds
2:53 AM 28.6 °F 21.5 °F 23.7 °F 82% 29.95 in 10.0 mi SSW 6.9 mph - N/A   Scattered Clouds
3:12 AM 27.5 °F 18.0 °F 23.0 °F 83% 29.96 in 10.0 mi SW 10.4 mph - N/A   Clear
3:33 AM 28.0 °F 17.5 °F 23.5 °F 83% 29.96 in 10.0 mi SW 12.7 mph - N/A   Clear
3:52 AM 29.7 °F 18.6 °F 25.0 °F 83% 29.96 in 10.0 mi SW 15.0 mph - N/A   Clear
4:13 AM 31.3 °F 21.6 °F 26.1 °F 81% 29.97 in 10.0 mi WSW 12.7 mph 18.4 mph N/A   Clear
4:32 AM 33.1 °F 23.9 °F 26.2 °F 76% 29.98 in 10.0 mi WSW 12.7 mph 21.9 mph N/A   Clear
4:53 AM 32.9 °F 23.2 °F 25.7 °F 75% 29.99 in 10.0 mi WSW 13.8 mph 19.6 mph N/A   Clear
5:13 AM 33.4 °F 23.5 °F 25.7 °F 73% 30.00 in 10.0 mi West 15.0 mph 23.0 mph N/A   Clear
5:32 AM 35.1 °F 24.8 °F 25.7 °F 69% 30.01 in 10.0 mi West 17.3 mph 28.8 mph N/A   Clear
5:53 AM 34.7 °F 23.7 °F 25.3 °F 69% 30.02 in 10.0 mi West 19.6 mph 31.1 mph N/A   Clear
6:13 AM 34.2 °F 22.6 °F 24.8 °F 69% 30.03 in 10.0 mi West 20.7 mph 27.6 mph N/A   Clear
6:32 AM 34.0 °F 22.1 °F 23.9 °F 67% 30.04 in 10.0 mi West 21.9 mph 31.1 mph N/A   Clear
6:53 AM 33.6 °F 21.1 °F 23.2 °F 66% 30.06 in 10.0 mi West 24.2 mph 29.9 mph N/A   Clear
7:13 AM 33.1 °F 20.6 °F 22.8 °F 66% 30.06 in 10.0 mi West 23.0 mph 29.9 mph N/A   Clear
7:32 AM 32.5 °F 20.5 °F 22.6 °F 67% 30.07 in 10.0 mi West 20.7 mph 29.9 mph N/A   Clear
7:53 AM 32.0 °F 20.8 °F 22.1 °F 67% 30.08 in 10.0 mi West 17.3 mph 23.0 mph N/A   Clear
8:13 AM 32.0 °F 20.8 °F 21.7 °F 66% 30.10 in 10.0 mi West 17.3 mph - N/A   Clear
8:32 AM 31.6 °F 22.1 °F 21.6 °F 66% 30.11 in 10.0 mi West 12.7 mph 18.4 mph N/A   Clear
9:12 AM 31.5 °F 20.1 °F 21.2 °F 66% 30.13 in 10.0 mi West 17.3 mph - N/A   Clear
9:32 AM 31.8 °F 21.4 °F 21.2 °F 65% 30.15 in 10.0 mi West 15.0 mph 20.7 mph N/A   Clear
9:53 AM 32.0 °F 21.6 °F 21.0 °F 64% 30.16 in 10.0 mi West 15.0 mph 19.6 mph N/A   Clear
10:12 AM 32.0 °F 22.5 °F 20.8 °F 63% 30.16 in 10.0 mi West 12.7 mph - N/A   Clear
10:32 AM 32.0 °F 23.6 °F 20.8 °F 63% 30.17 in 10.0 mi West 10.4 mph - N/A   Clear
10:53 AM 32.5 °F 23.7 °F 20.7 °F 62% 30.19 in 10.0 mi West 11.5 mph - N/A   Clear
11:12 AM 32.5 °F 22.7 °F 20.8 °F 62% 30.20 in 10.0 mi West 13.8 mph 18.4 mph N/A   Clear
11:32 AM 33.1 °F 24.4 °F 21.0 °F 61% 30.20 in 10.0 mi West 11.5 mph 17.3 mph N/A   Clear
11:53 AM 33.8 °F 25.3 °F 21.2 °F 60% 30.22 in 10.0 mi WSW 11.5 mph - N/A   Clear
12:12 PM 33.4 °F 24.8 °F 22.1 °F 63% 30.23 in 10.0 mi WSW 11.5 mph - N/A   Clear
12:32 PM 33.8 °F 24.8 °F 21.9 °F 62% 30.25 in 10.0 mi WSW 12.7 mph 18.4 mph N/A   Clear
12:52 PM 34.0 °F 25.0 °F 21.7 °F 61% 30.26 in 10.0 mi WSW 12.7 mph 18.4 mph N/A   Clear
1:12 PM 33.8 °F 25.8 °F 22.3 °F 63% 30.27 in 10.0 mi WSW 10.4 mph 16.1 mph N/A   Clear
1:33 PM 34.0 °F 25.0 °F 22.1 °F 62% 30.29 in 10.0 mi WSW 12.7 mph 18.4 mph N/A   Clear
1:52 PM 34.0 °F 25.0 °F 21.9 °F 61% 30.30 in 10.0 mi WSW 12.7 mph 17.3 mph N/A   Clear
2:13 PM 34.2 °F 25.2 °F 21.9 °F 61% 30.32 in 10.0 mi WSW 12.7 mph - N/A   Clear
2:32 PM 34.7 °F 26.9 °F 22.1 °F 60% 30.33 in 10.0 mi WSW 10.4 mph - N/A   Clear
2:53 PM 34.7 °F 26.4 °F 21.6 °F 59% 30.33 in 10.0 mi WSW 11.5 mph - N/A   Clear
3:12 PM 34.7 °F 27.5 °F 21.7 °F 59% 30.34 in 10.0 mi WSW 9.2 mph - N/A   Clear
3:32 PM 34.5 °F 27.3 °F 22.6 °F 62% 30.35 in 10.0 mi SW 9.2 mph - N/A   Clear
3:52 PM 34.7 °F 28.8 °F 22.5 °F 61% 30.35 in 10.0 mi SW 6.9 mph - N/A   Clear
4:12 PM 33.1 °F 28.7 °F 22.6 °F 66% 30.34 in 10.0 mi WSW 4.6 mph - N/A   Clear
4:32 PM 32.2 °F 28.9 °F 22.1 °F 66% 30.33 in 10.0 mi SSW 3.5 mph - N/A   Clear
4:52 PM 27.9 °F 22.6 °F 20.7 °F 74% 30.33 in 10.0 mi SSW 4.6 mph - N/A   Clear
5:13 PM 29.1 °F - 21.2 °F 72% 30.33 in 10.0 mi Calm Calm - N/A   Clear
5:32 PM 26.6 °F - 19.6 °F 75% 30.33 in 10.0 mi Calm Calm - N/A   Clear
5:53 PM 26.4 °F - 19.8 °F 76% 30.33 in 10.0 mi Calm Calm - N/A   Clear
6:13 PM 21.4 °F - 17.1 °F 83% 30.33 in 10.0 mi Calm Calm - N/A   Clear
6:32 PM 23.0 °F - 18.9 °F 84% 30.33 in 10.0 mi Calm Calm - N/A   Clear
6:52 PM 21.9 °F - 18.0 °F 85% 30.32 in 10.0 mi Calm Calm - N/A   Clear
7:13 PM 19.0 °F 12.3 °F 15.4 °F 86% 30.33 in 10.0 mi South 4.6 mph - N/A   Clear
7:33 PM 21.7 °F - 18.5 °F 87% 30.32 in 10.0 mi Calm Calm - N/A   Clear
7:52 PM 18.9 °F - 14.0 °F 81% 30.32 in 10.0 mi Calm Calm - N/A   Clear
8:33 PM 27.9 °F 20.6 °F 22.8 °F 81% 30.31 in 10.0 mi South 6.9 mph - N/A   Clear
8:52 PM 25.3 °F 18.5 °F 21.0 °F 84% 30.31 in 10.0 mi South 5.8 mph - N/A   Clear
9:13 PM 26.2 °F 19.6 °F 21.0 °F 81% 30.31 in 10.0 mi South 5.8 mph - N/A   Clear
9:33 PM 26.6 °F 21.2 °F 20.8 °F 79% 30.30 in 10.0 mi South 4.6 mph - N/A   Clear
9:52 PM 25.2 °F 20.9 °F 19.4 °F 79% 30.29 in 10.0 mi SSW 3.5 mph - N/A   Clear
10:13 PM 26.4 °F 20.9 °F 20.7 °F 79% 30.29 in 10.0 mi South 4.6 mph - N/A   Clear
10:32 PM 25.2 °F 20.9 °F 19.2 °F 78% 30.30 in 10.0 mi South 3.5 mph - N/A   Clear
10:53 PM 26.2 °F 20.7 °F 20.5 °F 79% 30.30 in 10.0 mi South 4.6 mph - N/A   Clear
11:12 PM 28.2 °F 19.5 °F 21.4 °F 76% 30.31 in 10.0 mi South 9.2 mph - N/A   Clear
11:33 PM 30.2 °F 21.3 °F 22.6 °F 73% 30.32 in 10.0 mi South 10.4 mph - N/A   Clear
11:52 PM 30.7 °F 23.3 °F 22.8 °F 72% 30.30 in 10.0 mi South 8.1 mph - N/A   Clear